Weather History for Abilene, TX

Change the Weather History Date:

Sunday, March 23, 2014

  Actual Average Record
Temperature  
Mean Temperature 47 °F 58 °F  
Max Temperature 56 °F 71 °F 87 °F (1998)
Min Temperature 37 °F 46 °F 23 °F (1952)
Degree Days  
Heating Degree Days 18 8  
Month to date heating degree days 300 241  
Since 1 July heating degree days 2662 2374  
Cooling Degree Days 0 1  
Month to date cooling degree days 17 18  
Year to date cooling degree days 22 23  
Moisture  
Dew Point 24 °F    
Average Humidity 45    
Maximum Humidity 65    
Minimum Humidity 24    
Precipitation  
Precipitation T in 0.06 in 1.80 in (1973)
Month to date precipitation 0.64 1.30  
Year to date precipitation 1.13 3.68  
Sea Level Pressure  
Sea Level Pressure 30.26 in    
Wind  
Wind Speed 11 mph (NNE)    
Max Wind Speed 24 mph    
Max Gust Speed 29 mph    
Visibility 10 miles    
Events Rain    
T = Trace of Precipitation, MM = Missing Value Source: NWS Daily Summary

Daily Weather History Graph

Daily Weather History Graph

Search for Another Location

Airport:

Trip Planner

Search our weather history database for the weather conditions in past years. The results will help you decide how hot, cold, wet, or windy it might be!

Date:

Astronomy

Mar. 23, 2014 Rise Set
Actual Time 7:38 AM CDT 7:52 PM CDT
Civil Twilight 7:14 AM CDT 8:16 PM CDT
Nautical Twilight 6:45 AM CDT 8:45 PM CDT
Astronomical Twilight 6:16 AM CDT 9:14 PM CDT
Moon 1:54 AM CDT (3/23) 12:37 PM CDT (3/23)
Length of Visible Light 13h 02m
Length of Day
12h 13m
Waning Gibbous, 54% of the Moon is Illuminated
Mar 23
Waning Gibbous
Mar 23
Last Quarter
Mar 30
New
Apr 7
First Quarter
Apr 15
Full

Hourly Weather History & Observations

Time (CDT) Temp. Windchill Dew Point Humidity Pressure Visibility Wind Dir Wind Speed Gust Speed Precip Events Conditions
12:52 AM 45.0 °F 42.6 °F 34.0 °F 65% 30.13 in 10.0 mi North 4.6 mph - N/A   Clear
1:52 AM 46.0 °F 43.9 °F 35.1 °F 66% 30.14 in 10.0 mi North 4.6 mph - N/A   Scattered Clouds
1:59 AM 46.0 °F 43.1 °F 35.1 °F 66% 30.16 in 10.0 mi North 5.8 mph - N/A   Mostly Cloudy
2:52 AM 50.0 °F - 35.1 °F 57% 30.15 in 10.0 mi NNE 13.8 mph 21.9 mph N/A   Overcast
3:52 AM 50.0 °F - 33.1 °F 52% 30.17 in 10.0 mi NNE 12.7 mph 21.9 mph N/A   Overcast
4:27 AM 48.9 °F - 33.1 °F 54% 30.20 in 10.0 mi NE 17.3 mph 25.3 mph N/A   Overcast
4:52 AM 48.9 °F - 33.1 °F 54% 30.19 in 10.0 mi NNE 15.0 mph 24.2 mph N/A   Overcast
5:52 AM 48.0 °F - 28.9 °F 48% 30.25 in 10.0 mi NE 11.5 mph 23.0 mph N/A   Overcast
6:52 AM 45.0 °F 38.5 °F 26.1 °F 48% 30.28 in 10.0 mi North 13.8 mph - 0.00 in Rain Light Rain
7:52 AM 39.0 °F 30.6 °F 19.9 °F 46% 30.33 in 10.0 mi North 15.0 mph 20.7 mph 0.00 in   Scattered Clouds
8:02 AM 39.0 °F 30.6 °F 19.0 °F 45% 30.34 in 10.0 mi North 15.0 mph - N/A   Mostly Cloudy
8:52 AM 37.9 °F 28.9 °F 17.1 °F 43% 30.37 in 10.0 mi North 16.1 mph - 0.00 in   Overcast
9:02 AM 37.0 °F 28.1 °F 19.0 °F 48% 30.38 in 9.0 mi North 15.0 mph 24.2 mph 0.00 in Rain Light Rain
9:52 AM 39.0 °F 29.6 °F 18.0 °F 43% 30.38 in 10.0 mi North 18.4 mph - 0.00 in   Scattered Clouds
10:52 AM 41.0 °F 32.8 °F 18.0 °F 40% 30.37 in 10.0 mi North 16.1 mph - 0.00 in   Mostly Cloudy
11:52 AM 44.1 °F 35.9 °F 18.0 °F 35% 30.36 in 10.0 mi North 19.6 mph 24.2 mph N/A   Overcast
12:52 PM 46.0 °F 39.9 °F 17.1 °F 31% 30.35 in 10.0 mi North 13.8 mph - N/A   Overcast
1:52 PM 48.0 °F - 18.0 °F 30% 30.33 in 10.0 mi North 16.1 mph 23.0 mph N/A   Overcast
2:52 PM 51.1 °F - 19.0 °F 28% 30.30 in 10.0 mi NNE 9.2 mph 19.6 mph N/A   Mostly Cloudy
3:52 PM 54.0 °F - 19.9 °F 26% 30.25 in 10.0 mi North 10.4 mph - N/A   Partly Cloudy
4:52 PM 54.0 °F - 19.0 °F 25% 30.24 in 10.0 mi ENE 9.2 mph - N/A   Partly Cloudy
5:52 PM 55.0 °F - 19.9 °F 25% 30.22 in 10.0 mi NNE 8.1 mph - N/A   Clear
6:52 PM 54.0 °F - 19.9 °F 26% 30.22 in 10.0 mi ENE 8.1 mph - N/A   Clear
7:52 PM 51.1 °F - 19.9 °F 29% 30.23 in 10.0 mi ENE 4.6 mph - N/A   Clear
8:52 PM 48.0 °F - 21.0 °F 34% 30.25 in 10.0 mi ENE 5.8 mph - N/A   Clear
9:52 PM 46.0 °F 43.9 °F 21.0 °F 37% 30.25 in 10.0 mi East 4.6 mph - N/A   Clear
10:52 PM 43.0 °F 38.8 °F 21.0 °F 42% 30.27 in 10.0 mi East 6.9 mph - N/A   Clear
11:52 PM 42.1 °F 37.1 °F 21.9 °F 45% 30.26 in 10.0 mi East 8.1 mph - N/A   Clear